FALCON 9 DEB (53089 NORAD) Tracking and Keplerian Element Data

This shows tracking and keplerian element data for the satellite.

Feedback or suggestion? Click here.




ElementValue
Catalog53089
NameFALCON 9 DEB
Epoch Orbit893
Epoch Day248.06651983
Epoch Year2022
RAAN73.1939
Inclination97.6617
Eccentricity0.0002194
Argument of Perigee352.1639
Mean Anonmoly7.961
Mean Motion16.11179144
Decay Rate0.00861215
L11 53089U 22077AY 22248.06651983 .00861215 43229-3 86520-3 0 9999
L22 53089 97.6617 73.1939 0002194 352.1639 7.9610 16.11179144 8938

Live tracking and technical data element details for FALCON 9 DEB (NORAD 53089). FALCON 9 DEB can be tracked NOW for your location showing map with azimuth and elevation plus other details from your city location.

Track the satellite on the map from your city or location and see movement details for azimuth, elevation, latitude, longitude, range, height, and movement on the map or in text.







IsCatalogInMostPopularTable: catalog: 53089, numindb: 11
Update: records affected: 1



GetName: 53089 FALCON 9 DEB

Hit Count: updated at: Fri, 30 Sep 2022 03:38:59 GMT